Miscellaneous Local Product
Issued by NWS North Platte, NE

Home | Current Version | Previous Version | Text Only | Print | Product List | Glossary On
Versions: 1 2 3 4 5 6 7 8 9 10 11 12 13 14 15 16 17 18 19 20 21 22 23 24 25 26 27 28 29 30 31 32 33 34 35 36 37 38 39 40 41 42 43 44 45 46 47 48 49 50
000
AXUS43 KLBF 240410
MISLBF


WESTERN AND NORTH CENTRAL NEBRASKA HOURLY WEATHER ROUNDUP
NATIONAL WEATHER SERVICE NORTH PLATTE NE
1100 PM CDT THU OCT 23 2014

***STATIONS NOT REPORTING VARIABLES SUCH AS SKY/WEATHER OR
PRESSURE ARE PROVIDED BY THE NEBRASKA DEPARTMENT OF
ROADS...RAWS...AND APRS NETWORKS...AND ARE NOT UNDER
NATIONAL WEATHER SERVICE QUALITY CONTROL***

...OBSERVATIONS IN AND NEAR THE EASTERN PANHANDLE OF NEBRASKA...

CITY           SKY/WX    TMP DP  RH WIND       PRES   REMARKS
PINE RIDGE     PTCLDY    37  33  85 CALM      29.95R
CHADRON        CLEAR     44  35  70 SW8       29.95R
ALLIANCE       CLEAR     48  32  53 W7        30.00S
SIDNEY         PTCLDY    46  35  65 SW12      30.06S
WHITECLAY        N/A     39  32  76 SE5         N/A
RUSHVILLE        N/A     40  30  67 SW9         N/A  WCI  35
CRESCENT LAKE    N/A     55  33  43 SW5         N/A
LISCO            N/A     49  33  52 CALM        N/A
BIG SPRINGS      N/A     53  36  53 CALM        N/A
LEWELLEN         N/A     50  31  48 CALM        N/A
$$

...OBSERVATIONS IN NORTH CENTRAL NEBRASKA...

CITY           SKY/WX    TMP DP  RH WIND       PRES   REMARKS
VALENTINE      PTCLDY    49  37  63 W8        29.92S
THEDFORD       CLEAR     58  46  62 S12       29.96S
AINSWORTH      PTCLDY    56  44  64 S12       29.92S
O`NEILL        MOCLDY    57  55  91 S7        29.93S
ORD            PTCLDY    54  52  93 S6        29.96F
BROKEN BOW     PTCLDY    58  53  84 S9        29.98S
BROWNLEE         N/A     55  30  38 S9          N/A
SPRINGVIEW       N/A     58  47  66 CALM        N/A
BREWSTER         N/A     60  52  74 SW13        N/A
ROSE             N/A     56  54  92 SE6         N/A
NEWPORT          N/A     58  52  81 S12         N/A
SARGENT          N/A     53  51  92 CALM        N/A
COMSTOCK         N/A     58  57  95 S12         N/A
CHAMBERS         N/A     56  54  93 S10         N/A
EWING            N/A     56  53  90 S3          N/A
$$

...OBSERVATIONS IN SOUTHWEST NEBRASKA AND FAR NORTHEAST COLORADO...

CITY           SKY/WX    TMP DP  RH WIND       PRES   REMARKS
WRAY           FAIR      58  38  46 SW9       30.05S
HOLYOKE        FAIR      52  36  54 SW6       30.04S
IMPERIAL       PTCLDY    56  48  74 SW8       30.02S
OGALLALA       PTCLDY    44  37  75 W3        30.01S
NORTH PLATTE   PTCLDY    59  51  75 S8        29.99S
MCCOOK           N/A     59  55  87 SW8       30.03R
LEXINGTON      PTCLDY    58  55  88 S7        30.00S
PAXTON           N/A     57  39  51 S3          N/A
SUTHERLAND       N/A     52  46  78 W7          N/A
BRADY            N/A     56  50  81 CALM        N/A
GOTHENBURG       N/A     62  50  66 S5          N/A
CALLAWAY         N/A     52  48  87 SE8         N/A
$$

...SOME WEATHER OBSERVATIONS FROM AROUND THE REGION...

CITY           SKY/WX    TMP DP  RH WIND       PRES   REMARKS
DENVER         MOCLDY    60  31  33 SW16      30.12F
LARAMIE        MOCLDY    48  29  47 S6        30.20F
CHEYENNE       CLOUDY    53  32  44 S7        30.15R
SCOTTSBLUFF    MOCLDY    50  35  56 N3        30.02F
RAPID CITY     PTCLDY    47  36  65 W6        29.93R
PIERRE         MOCLDY    50  35  56 NE3       29.84F
WINNER         FAIR      60  35  39 SW10      29.87S
SIOUX FALLS    MOCLDY    58  46  64 S10       29.93F
OMAHA          CLOUDY    57  51  80 S3        30.01F
GRAND ISLAND   PTCLDY    59  56  89 S9        30.00F
KANSAS CITY    CLEAR     55  55 100 SW8       30.09R FOG
WICHITA        PTCLDY    63  58  83 S9        30.07S
HAYS           CLEAR     57  52  82 S3        30.06S
LIBERAL        CLEAR     61  54  77 S7        30.11R
GOODLAND       PTCLDY    57  52  83 S13       30.09R
$$



USA.gov is the U.S. government's official web portal to all federal, state and local government web resources and services.